GFSNIL_sfc_wetblb_000.txt.gz
Wetbulb
41.29 40.04 39.01 38.14 37.49 37.13 37.03 36.95 37.08 36.78 36.61 36.48 36.89 36.71 36.14 35.79 35.78 35.95 34.99 34.11 34.59 36.02
38.58 37.94 37.15 36.79 36.89 36.61 36.47 38.03 36.08 35.82 35.31 35.38 35.58 35.67 35.04 34.04 34.07 34.12 33.80 33.58 33.72 34.54
36.58 36.54 36.43 36.06 35.12 35.06 35.05 35.40 34.93 34.59 34.31 34.25 34.39 34.30 33.61 33.40 34.09 33.74 34.27 35.02 33.32 34.19
35.59 35.68 35.17 34.38 34.06 33.90 34.21 34.09 33.90 33.91 33.63 33.50 33.30 33.44 32.62 32.11 33.39 32.38 32.85 32.16 33.08 33.43
35.18 34.62 33.60 33.29 33.50 33.78 32.84 33.35 33.15 33.39 33.15 33.09 33.38 32.87 31.77 31.79 31.97 31.98 30.47 31.56 32.07 32.34
33.99 33.15 32.47 32.61 33.10 33.28 32.63 32.33 32.67 32.87 32.48 32.65 32.93 32.73 31.88 32.04 31.90 30.38 31.00 31.39 31.47 31.86
32.31 32.29 32.11 32.46 32.71 33.20 32.76 31.93 31.77 32.07 32.23 32.51 32.97 33.08 33.04 32.22 30.25 30.41 31.24 31.71 31.94 31.85
32.61 32.83 32.48 32.90 32.68 32.65 32.11 32.06 31.85 31.71 31.84 31.97 33.01 34.36 32.45 32.26 30.58 29.62 30.10 30.79 31.30 32.09
32.90 32.74 32.62 32.36 31.70 31.18 30.93 30.61 30.78 30.53 30.90 30.63 33.31 36.83 37.11 35.51 30.92 29.91 29.39 28.92 30.46 31.61
32.98 32.45 31.83 31.34 30.52 29.75 29.06 29.16 29.07 29.20 29.43 28.89 28.73 35.91 36.57 36.20 31.10 29.30 29.11 29.30 29.75 30.30
32.34 31.22 30.55 29.54 28.86 28.13 28.36 28.13 28.13 28.46 28.45 27.71 30.02 35.29 35.46 35.25 29.40 29.04 29.19 29.56 29.62 29.38
30.53 29.34 28.86 27.95 27.10 27.31 27.45 27.44 27.29 28.16 27.90 27.06 28.13 34.05 34.57 33.27 29.15 28.65 28.50 29.58 29.87 30.13
29.96 28.85 27.34 26.88 26.47 27.30 27.40 28.05 28.61 28.51 28.12 29.99 27.66 32.26 34.34 33.40 29.89 27.60 28.07 28.91 29.97 33.01
29.18 27.92 27.24 26.58 26.69 26.81 26.24 26.33 26.27 26.64 27.07 26.34 26.96 28.15 33.97 34.13 30.17 29.27 28.84 28.50 28.30 29.38

GFSNIL_sfc_wetblb_003.txt.gz
Wetbulb
38.79 37.68 36.80 36.26 35.50 35.12 35.02 34.69 34.87 34.77 34.48 34.30 34.67 34.51 33.93 33.44 33.28 33.70 32.51 31.80 32.25 33.72
36.44 36.02 35.17 34.85 34.95 34.49 34.30 36.86 34.21 33.72 33.29 33.27 33.43 33.36 32.65 31.72 31.58 31.70 31.52 31.33 31.33 31.82
34.62 34.64 34.31 33.82 33.13 33.21 33.30 33.50 33.21 32.85 32.46 32.54 32.36 32.23 31.49 30.98 31.72 31.06 31.40 32.82 30.86 30.17
33.89 33.76 33.33 32.77 32.38 32.32 32.38 32.41 32.39 32.34 32.02 31.65 31.62 31.45 30.45 30.15 31.03 30.32 30.22 29.33 29.98 30.56
33.41 32.71 31.87 31.67 31.88 32.19 31.55 31.92 31.81 31.68 31.52 31.71 31.49 30.97 29.89 29.52 29.68 29.20 28.07 28.81 29.39 30.05
31.93 31.35 30.88 31.08 31.63 32.08 31.50 31.26 31.57 31.60 31.19 31.36 31.40 30.74 30.35 29.85 29.67 28.62 28.60 28.84 29.18 29.82
30.92 30.76 30.83 31.35 31.58 31.73 31.74 31.24 31.06 31.12 31.06 30.87 31.06 31.33 31.42 30.63 28.93 28.40 29.22 29.71 29.85 29.74
31.10 31.38 31.55 31.66 31.32 31.72 31.17 30.90 30.87 29.95 29.88 30.00 30.94 33.22 32.63 32.14 30.16 28.25 27.66 28.40 29.39 30.25
31.57 31.60 31.48 31.28 30.97 30.42 29.77 29.40 28.54 28.36 28.64 28.65 31.82 36.09 36.93 35.57 31.12 28.36 27.43 27.05 28.78 29.60
31.74 31.45 30.98 30.58 29.59 28.62 27.47 26.74 26.87 27.03 27.22 27.46 27.90 35.30 36.25 36.23 31.19 27.41 26.87 27.44 28.11 28.81
31.40 30.44 29.80 28.73 27.47 25.96 26.05 26.01 26.19 26.43 26.47 26.04 28.63 34.60 35.02 35.16 29.62 27.32 27.18 27.48 27.66 27.50
29.76 28.78 28.03 26.61 25.27 25.22 25.40 25.59 25.64 26.35 25.67 25.04 25.40 32.90 33.97 33.12 28.94 26.64 26.24 27.61 28.58 29.92
29.13 27.99 26.66 25.35 24.73 25.43 25.82 26.05 26.67 26.92 25.89 27.70 24.53 30.43 33.17 32.30 28.76 26.97 27.67 28.88 29.43 32.18
28.24 27.13 25.85 25.03 25.35 25.45 24.68 24.45 24.14 23.30 23.15 23.10 24.62 26.12 32.36 32.58 28.87 27.96 27.51 27.18 27.35 28.82

GFSNIL_sfc_wetblb_006.txt.gz
Wetbulb
37.30 36.46 35.74 35.10 34.52 34.12 33.71 33.62 33.53 33.15 32.76 32.42 32.56 32.31 31.68 31.29 30.99 31.43 30.15 29.35 29.52 30.11
35.36 35.24 34.35 33.79 33.67 33.20 33.25 35.58 32.74 32.21 31.80 31.57 31.56 31.44 30.71 29.86 29.74 29.72 29.52 29.20 28.98 28.83
33.81 33.61 33.08 32.87 32.24 32.26 32.24 32.32 31.95 31.58 31.16 30.92 30.77 30.69 29.91 29.51 30.17 29.35 29.22 30.81 28.04 27.83
32.55 32.50 32.15 31.89 31.50 31.54 31.41 31.27 31.17 31.06 30.66 30.41 30.34 30.23 29.16 28.91 29.49 29.08 28.50 27.95 28.04 28.33
32.02 31.67 31.16 30.94 30.98 31.21 30.59 30.83 30.59 30.53 30.43 30.28 30.26 29.80 28.73 28.23 28.70 28.02 27.33 27.46 27.48 27.89
30.90 30.64 30.21 30.32 30.73 31.07 30.61 30.24 30.32 30.52 30.12 30.05 30.27 29.48 29.37 28.66 28.30 27.91 27.59 27.51 27.40 27.80
30.16 30.04 30.04 30.47 30.68 30.86 30.74 30.15 30.08 29.93 29.48 29.50 29.30 29.74 29.64 29.38 28.39 27.89 28.38 28.38 28.42 27.93
30.22 30.38 30.51 30.68 30.69 30.49 30.18 29.76 29.12 28.84 28.61 28.50 29.30 31.79 31.91 31.43 29.32 27.71 26.93 27.22 27.74 28.54
30.63 30.56 30.65 30.39 29.74 29.22 28.97 28.09 27.80 27.09 27.10 26.96 30.15 34.56 36.11 34.52 30.20 27.49 26.06 25.77 27.01 27.80
30.74 30.25 30.09 29.41 28.78 27.63 26.42 26.31 26.19 26.13 25.79 25.22 25.41 34.34 34.98 35.24 30.37 26.96 26.05 25.59 26.44 27.75
30.53 29.65 28.97 28.11 26.46 25.41 25.89 25.70 25.62 25.24 24.96 24.07 26.75 33.07 33.93 34.51 27.92 25.84 25.64 26.20 26.48 26.24
29.57 28.30 26.93 25.68 24.92 25.19 25.10 24.79 24.27 24.54 24.05 22.84 23.28 31.57 33.02 32.03 27.43 26.65 26.06 26.95 26.99 27.48
27.90 26.92 25.36 24.61 24.63 24.80 24.05 23.92 24.44 24.35 23.46 26.42 22.52 29.08 32.39 31.60 27.92 25.46 26.01 26.76 27.59 31.73
26.78 25.76 25.04 24.28 24.04 23.63 23.03 22.86 22.03 21.91 21.78 21.76 23.08 24.01 31.93 32.61 29.06 27.54 27.26 27.43 28.21 28.56

GFSNIL_sfc_wetblb_009.txt.gz
Wetbulb
37.83 36.82 36.01 35.19 34.34 33.56 33.20 32.93 32.62 32.05 31.63 31.30 31.35 30.92 30.18 29.85 29.55 29.88 28.60 27.82 27.87 28.33
35.01 34.84 33.98 33.20 33.05 32.67 32.59 34.39 31.72 31.18 30.82 30.47 30.46 30.29 29.55 28.72 28.60 28.35 28.19 27.97 27.70 27.29
33.24 33.09 32.73 32.53 31.85 31.77 31.48 31.39 31.01 30.55 30.10 30.00 29.88 29.63 28.79 28.38 28.91 28.09 28.31 29.60 27.31 26.60
31.85 31.82 31.52 31.11 30.83 30.80 30.65 30.54 30.31 30.08 29.76 29.43 29.19 29.00 28.03 27.76 28.77 28.02 27.61 27.37 26.82 27.23
31.24 30.94 30.40 30.16 30.22 30.47 29.89 30.01 29.67 29.58 29.24 28.93 29.00 28.48 27.51 27.12 27.52 27.22 26.67 26.94 26.32 26.68
30.21 29.99 29.47 29.55 29.95 30.26 29.71 29.19 29.15 28.90 28.30 28.38 28.65 28.03 27.77 27.67 27.62 27.25 26.92 26.68 26.24 26.60
29.56 29.38 29.32 29.62 29.74 29.88 29.31 28.46 27.98 27.88 28.09 28.06 27.86 28.12 28.44 28.81 27.90 27.18 27.64 27.50 27.14 26.89
29.38 29.56 29.72 29.67 29.34 29.17 28.53 27.72 27.51 27.89 27.39 26.92 27.63 30.43 30.65 29.92 28.16 26.54 25.61 25.69 26.00 27.46
29.84 29.90 29.93 28.94 28.28 27.70 27.10 26.98 26.58 25.89 25.84 25.33 28.78 33.18 35.29 33.85 28.57 25.73 24.86 24.82 26.01 26.37
30.00 29.41 28.56 28.05 27.42 26.56 25.12 24.79 25.01 24.78 24.63 24.19 23.71 33.26 34.34 34.63 27.73 25.29 24.74 25.15 25.49 26.11
29.76 28.81 27.99 26.53 25.01 24.05 24.19 24.13 23.85 24.41 23.94 22.57 25.01 32.37 33.30 33.88 26.31 25.05 24.84 25.02 25.71 25.34
28.85 26.89 25.68 24.34 23.28 23.56 23.29 23.41 23.68 22.92 22.40 21.31 22.09 30.96 32.39 31.79 26.05 24.75 24.80 25.92 26.17 26.63
26.91 25.47 23.97 23.20 23.14 23.13 23.17 22.88 22.53 22.44 21.95 25.19 21.52 28.74 32.11 31.53 27.63 24.92 26.40 26.40 27.11 32.12
25.24 24.19 23.53 22.96 22.76 22.62 21.39 21.07 20.38 21.04 20.69 20.87 22.66 24.08 31.82 32.68 28.94 27.45 28.00 27.10 26.90 27.51

GFSNIL_sfc_wetblb_015.txt.gz
Wetbulb
42.66 41.81 40.94 40.08 39.37 38.83 38.27 37.27 36.69 36.11 36.22 35.86 35.92 35.84 35.67 35.86 35.64 35.29 35.08 33.74 34.04 34.00
41.01 40.88 39.87 39.05 38.75 37.77 36.96 35.94 35.58 35.81 35.42 35.33 35.29 35.02 34.67 34.99 34.42 34.40 34.51 34.26 34.16 33.38
40.03 39.52 38.33 37.71 36.61 36.26 35.76 35.31 35.07 34.90 34.88 34.59 34.41 34.12 33.89 33.86 33.87 33.72 34.30 34.32 33.15 33.13
37.34 36.74 36.66 36.07 35.28 34.94 34.76 34.72 34.47 34.27 33.95 33.74 33.45 33.21 33.09 32.89 33.31 32.72 32.88 33.18 32.41 31.65
35.63 35.24 34.63 34.15 34.05 34.41 33.81 34.09 33.70 33.47 33.13 32.84 32.43 32.31 32.01 32.06 32.60 32.20 31.53 31.38 30.97 30.57
34.23 34.09 33.45 33.17 33.33 33.37 33.06 32.78 32.87 32.85 32.22 31.71 31.48 31.42 31.58 32.15 32.66 32.06 31.44 30.78 30.16 29.69
33.50 33.33 33.06 32.87 32.66 32.48 32.56 32.17 32.05 31.68 31.24 30.65 30.58 30.80 31.56 32.79 32.94 32.03 31.23 30.74 30.40 29.90
32.57 32.64 32.45 31.92 31.52 31.48 31.78 31.32 31.20 30.70 30.04 29.93 30.35 31.34 33.59 34.06 33.00 31.67 30.59 30.64 30.33 30.68
32.07 32.07 31.34 30.89 30.58 30.73 30.47 30.30 30.03 29.21 28.75 28.86 29.58 32.28 34.87 34.67 32.93 31.43 30.19 29.57 30.29 30.43
31.79 30.69 30.25 30.01 30.06 29.56 29.16 29.26 28.48 28.14 27.82 27.46 27.81 32.56 34.02 34.20 32.71 30.77 30.34 29.94 29.84 29.58
30.72 29.57 29.33 29.25 28.82 28.46 28.57 28.12 27.69 27.07 26.79 26.77 27.73 31.85 33.03 33.48 31.94 30.78 30.56 30.30 29.91 29.41
30.02 28.59 28.50 28.02 27.65 27.61 27.57 27.02 26.32 26.53 26.27 26.05 27.51 30.59 32.05 32.41 30.95 30.15 29.91 30.23 30.21 29.67
29.23 28.35 27.64 27.44 26.96 26.35 26.19 26.09 26.40 26.47 26.37 26.79 26.26 29.03 31.56 31.96 30.53 29.03 29.10 30.23 30.21 31.22
27.68 27.07 26.93 26.46 26.23 25.47 25.12 25.15 24.91 25.51 25.98 26.23 26.84 27.84 31.15 31.90 30.35 29.38 29.29 28.69 28.44 28.72

GFSNIL_sfc_wetblb_021.txt.gz
Wetbulb
51.85 48.26 45.51 44.80 44.11 44.62 44.39 45.65 45.12 44.62 44.27 43.18 42.45 42.13 42.07 41.80 41.40 40.91 40.48 39.99 39.68 38.83
48.73 48.33 46.46 45.24 45.90 46.18 45.96 45.05 44.20 43.55 42.56 42.09 41.69 41.46 41.01 40.73 40.02 39.74 40.01 39.89 39.95 38.71
47.72 46.94 46.26 46.04 46.22 45.40 44.86 43.75 42.89 42.20 41.70 41.11 40.74 40.39 39.98 39.82 39.67 38.75 39.44 39.28 38.00 37.77
45.14 46.27 45.33 45.36 44.59 43.54 43.26 42.58 41.65 41.18 40.66 40.14 39.73 39.44 39.02 38.78 38.66 38.00 38.16 38.30 37.30 36.40
45.53 43.84 44.17 43.36 42.93 43.00 41.94 41.85 40.90 40.46 39.83 39.29 38.70 38.41 37.79 37.53 38.02 37.30 36.70 36.72 36.17 35.16
42.24 42.38 42.17 41.64 41.98 41.88 40.89 40.05 39.64 39.39 38.73 38.04 37.44 37.03 37.03 36.92 36.92 37.12 36.92 36.39 35.32 34.47
41.03 41.08 40.78 40.56 40.91 40.31 39.67 38.82 38.79 38.47 37.67 36.90 36.39 35.99 35.91 36.75 36.96 37.10 36.76 36.41 35.65 34.59
40.34 40.57 39.49 39.81 39.41 39.14 38.93 38.21 37.81 36.88 36.21 35.77 35.53 35.40 34.93 36.12 36.13 35.68 35.48 35.44 35.08 34.84
39.23 38.42 38.42 38.00 37.80 36.54 36.97 36.55 36.31 35.31 35.16 34.64 34.49 32.78 34.44 34.92 34.15 34.31 34.21 33.49 33.74 34.13
38.05 37.04 36.54 36.95 36.75 36.25 35.80 35.68 34.79 34.23 33.88 33.67 33.92 32.31 33.65 34.42 33.46 33.28 33.75 33.14 32.85 32.73
35.89 35.52 35.64 35.64 35.76 35.38 35.11 34.59 33.85 33.31 33.25 32.98 33.49 31.28 32.61 33.64 32.88 33.33 33.54 33.41 33.08 32.22
36.30 35.65 35.46 34.56 34.22 34.31 33.26 33.01 32.85 32.88 32.58 32.29 32.50 31.20 31.81 32.57 31.87 31.99 32.18 33.15 32.96 32.78
36.10 35.27 34.52 33.69 32.47 32.96 33.55 32.48 32.46 32.11 32.58 31.85 30.73 32.04 31.54 32.08 31.08 30.16 30.85 31.65 32.12 33.66
34.33 33.43 32.80 32.46 32.79 32.61 32.31 32.04 31.84 31.35 32.29 31.98 31.81 30.99 31.56 31.93 30.51 30.05 29.81 29.62 29.88 31.03

GFSNIL_sfc_wetblb_024.txt.gz
Wetbulb
50.26 46.98 46.28 45.21 43.69 42.99 42.59 43.48 43.81 42.51 40.08 38.76 38.78 38.28 37.88 37.13 36.52 35.79 34.83 34.14 34.18 34.17
49.47 47.95 45.74 45.04 44.09 43.81 43.96 43.50 42.67 41.37 37.87 37.50 37.58 37.43 36.87 35.86 35.25 34.70 34.55 34.20 33.94 33.60
47.16 46.18 45.64 44.85 44.43 44.69 43.75 42.83 40.94 37.80 37.03 36.72 36.62 36.36 35.90 35.08 35.22 34.40 34.00 34.70 33.00 32.52
46.28 46.27 46.03 44.78 44.41 42.92 42.39 41.86 40.15 37.21 36.46 36.07 35.66 35.78 34.90 34.69 35.05 34.09 33.66 33.43 32.87 32.36
45.73 45.39 44.79 43.32 42.79 41.77 41.09 40.04 37.49 36.97 36.14 35.73 35.69 34.62 34.15 33.51 33.86 33.29 33.14 32.46 31.80 31.34
43.81 43.16 42.63 42.22 41.86 41.53 39.46 38.48 35.98 35.60 35.24 35.27 35.11 34.92 34.49 33.12 32.97 33.40 32.94 32.22 31.19 30.58
42.10 41.81 41.16 41.51 39.89 39.90 38.03 35.91 34.91 35.06 34.70 34.85 34.84 34.95 34.12 34.00 33.18 33.44 33.03 32.93 31.72 30.62
40.74 40.45 40.04 38.55 38.21 38.24 37.13 34.31 34.22 33.35 33.75 34.29 34.57 34.70 33.19 33.50 32.82 31.81 31.08 31.03 31.47 31.17
38.79 38.35 37.79 38.18 36.89 35.85 33.32 32.63 32.72 34.01 33.84 33.07 34.03 34.89 34.83 34.42 32.02 31.08 29.51 28.79 29.43 30.06
37.24 36.69 36.79 35.45 34.98 33.34 33.23 33.60 32.51 32.13 31.78 31.26 32.03 34.23 33.62 34.13 31.36 29.42 28.43 28.34 28.43 29.26
35.88 35.43 35.26 34.54 33.38 32.42 32.66 31.96 30.84 30.99 31.81 31.37 32.76 33.18 32.59 33.28 28.95 27.91 27.95 28.40 28.25 27.42
35.13 34.37 33.91 33.00 32.24 31.20 30.00 30.21 31.40 31.56 30.90 30.18 28.65 32.18 31.73 31.31 27.70 26.88 26.01 28.38 28.22 28.55
35.00 33.65 31.58 29.91 29.53 30.98 31.87 30.80 30.61 30.36 28.73 31.00 26.24 32.05 31.86 31.15 27.64 24.94 25.75 26.80 27.64 32.57
32.46 31.26 30.92 31.01 31.25 30.56 29.84 29.01 26.95 26.79 26.87 27.02 27.55 26.89 32.11 32.32 27.95 26.50 26.62 26.06 25.64 26.84

GFSNIL_sfc_wetblb_027.txt.gz
Wetbulb
50.14 48.26 47.31 46.45 45.65 46.04 45.21 44.66 44.19 43.51 42.75 40.69 39.13 38.83 36.66 35.80 35.22 34.62 33.94 33.26 33.34 33.31
49.08 47.62 45.81 45.62 45.34 45.21 45.03 43.83 43.52 42.55 40.73 38.94 39.03 37.74 35.95 34.74 33.77 33.49 33.36 33.00 32.99 32.73
47.80 47.83 45.80 45.38 44.79 44.23 43.99 43.53 41.86 41.20 40.28 39.38 37.98 35.53 34.57 33.57 33.62 33.29 32.91 33.40 32.10 31.57
47.83 46.59 45.52 45.19 44.47 44.03 43.72 42.18 40.73 39.57 38.46 37.30 36.01 34.34 33.78 33.62 33.62 32.99 32.76 32.30 32.03 31.65
45.92 45.11 44.80 44.58 44.34 43.89 43.01 41.98 41.30 38.86 37.52 36.64 34.34 33.77 33.31 33.07 33.29 32.42 32.65 32.60 31.67 30.80
45.08 44.88 44.11 42.77 42.16 42.24 41.53 41.19 39.26 38.07 36.25 34.31 33.76 33.18 32.80 32.38 32.72 33.25 33.32 32.60 30.87 30.27
44.54 42.80 41.46 41.76 40.97 40.70 39.96 39.37 36.87 36.29 35.55 33.69 33.42 33.19 33.59 34.16 33.83 33.24 32.77 32.43 31.56 30.12
41.24 40.99 40.48 39.62 40.31 39.47 38.45 36.38 35.73 34.63 33.88 32.49 32.94 34.30 33.72 34.29 32.94 31.37 30.90 30.72 30.98 30.68
38.78 38.73 38.21 38.34 36.81 36.04 34.63 34.30 33.71 33.19 32.35 32.03 34.68 37.07 36.70 34.39 31.70 31.09 30.01 28.88 28.85 29.00
36.91 36.34 35.59 34.95 35.06 33.84 32.64 32.99 32.66 32.57 32.25 31.79 33.55 36.06 35.34 34.72 31.55 29.94 28.11 26.79 26.70 28.05
35.77 35.28 35.34 34.79 34.11 33.83 33.63 32.08 31.20 30.67 31.34 30.90 33.54 34.91 34.31 34.00 28.37 26.51 26.71 26.78 26.77 26.00
36.40 35.62 35.22 34.02 33.34 32.75 31.46 30.97 30.87 30.91 30.99 29.21 30.29 33.54 33.16 30.43 26.85 25.97 25.66 27.27 27.26 27.74
35.81 34.43 33.20 32.09 31.12 30.61 30.34 30.82 31.36 30.26 28.47 31.17 25.24 33.26 32.42 30.52 27.39 24.91 25.94 25.88 27.06 31.76
34.77 32.79 30.54 29.39 29.41 30.20 30.13 29.31 27.47 25.70 25.17 25.26 26.17 26.46 32.11 32.45 26.88 26.15 26.13 26.07 25.79 26.33

GFSNIL_sfc_wetblb_030.txt.gz
Wetbulb
54.69 53.50 52.52 51.08 49.20 48.01 46.20 45.93 45.48 44.83 43.76 42.40 41.48 39.76 39.01 36.63 36.73 34.13 33.07 32.48 32.63 32.48
51.61 50.74 49.18 48.01 48.23 46.07 45.75 45.81 44.61 43.57 42.63 41.51 41.25 40.31 38.21 37.40 35.41 33.03 32.66 32.19 32.37 32.25
49.71 48.89 47.79 46.69 47.66 46.35 44.81 45.44 44.51 42.16 40.92 40.22 39.85 38.90 37.28 35.28 35.10 33.92 32.18 32.57 31.53 31.13
47.93 47.23 47.25 46.49 46.10 45.19 44.03 42.95 42.39 40.74 40.17 39.97 39.18 37.46 36.33 35.66 33.97 33.25 32.03 31.47 31.42 31.18
46.63 46.46 45.97 46.00 45.01 44.26 41.05 41.26 40.32 39.89 39.19 38.80 37.06 36.02 35.48 34.69 34.52 32.22 31.44 31.26 31.07 31.28
44.30 44.54 44.88 43.73 43.48 42.38 40.78 40.68 40.56 40.30 39.15 38.26 36.56 34.94 34.05 33.92 32.25 31.86 31.72 32.01 32.52 32.60
44.24 43.19 44.08 42.60 42.39 41.74 41.28 40.05 39.16 38.17 36.46 35.47 34.65 34.05 33.71 33.56 31.36 31.51 31.73 33.40 32.59 31.58
42.48 41.23 41.16 40.79 40.02 38.96 37.58 36.54 36.51 35.18 34.50 34.09 34.20 34.81 33.96 32.94 31.25 31.44 31.71 31.78 31.57 31.40
39.66 38.96 38.02 36.52 35.67 35.97 35.93 35.58 35.05 33.70 33.08 33.62 35.91 38.10 37.06 34.06 32.27 31.52 30.56 29.38 29.17 28.85
37.42 35.77 35.14 35.40 35.38 34.86 33.68 33.83 32.77 32.65 32.34 33.04 34.90 36.90 36.00 34.47 31.22 29.23 27.51 26.56 26.17 27.14
35.83 35.69 36.01 35.21 34.22 33.59 33.91 33.54 33.24 32.86 32.76 32.58 34.17 36.01 35.29 33.09 28.32 26.63 25.50 25.80 25.41 25.05
36.64 35.78 35.24 34.38 34.03 34.29 34.23 33.30 32.42 31.46 30.83 31.65 32.38 34.86 34.30 29.71 25.80 25.53 25.00 26.22 26.28 27.14
36.96 36.09 34.90 34.19 32.99 32.06 31.33 30.44 31.12 30.46 29.72 32.15 28.16 33.93 33.18 30.04 25.45 23.69 25.46 25.10 26.30 30.80
35.12 33.66 32.91 31.30 30.79 30.15 29.71 29.72 28.44 26.68 24.50 24.13 24.62 25.01 32.42 32.67 26.35 26.06 25.62 25.36 24.80 25.52

GFSNIL_sfc_wetblb_033.txt.gz
Wetbulb
58.25 56.56 55.23 53.45 53.72 52.17 51.07 50.53 46.40 46.40 44.79 44.25 43.49 41.83 41.16 39.64 38.89 37.18 35.43 32.91 33.84 33.23
54.69 53.85 53.70 52.39 52.05 51.75 49.82 47.86 45.80 45.13 43.23 42.91 42.94 41.44 40.15 38.25 38.88 36.20 34.72 35.14 32.22 32.64
53.56 53.24 50.91 48.61 48.19 46.43 45.48 45.86 44.24 43.05 42.19 42.46 41.49 41.02 38.93 37.38 36.34 35.72 34.85 34.90 33.53 33.26
47.58 46.25 45.63 46.54 45.38 44.72 45.59 44.75 44.35 42.50 41.70 40.47 39.53 38.88 37.94 36.70 36.01 34.88 34.51 33.65 33.57 32.29
45.85 45.52 45.09 46.04 45.03 44.79 44.54 44.17 42.59 41.64 40.49 39.60 38.50 37.82 36.33 35.57 35.24 34.42 33.90 33.16 32.68 32.10
44.25 44.74 46.03 46.22 45.08 44.27 43.50 41.68 40.30 39.72 38.31 37.69 37.22 36.99 36.75 35.84 34.76 34.20 33.73 33.08 32.32 32.14
45.13 45.20 44.86 44.07 42.39 41.73 41.12 39.76 39.69 38.97 37.68 36.81 36.09 35.61 35.19 34.17 33.39 33.30 33.18 33.22 32.69 32.40
43.51 43.57 42.09 41.14 40.36 40.59 38.46 36.91 37.19 36.20 35.77 35.51 35.48 35.98 34.97 34.64 33.40 32.60 31.93 32.03 32.07 31.97
39.77 38.22 37.60 37.13 36.10 35.97 35.46 35.67 35.41 34.67 34.39 34.48 36.11 38.07 37.05 34.00 31.93 31.46 30.82 30.06 29.74 28.74
36.57 36.09 36.17 36.50 36.17 37.13 34.80 34.14 32.99 33.47 34.26 34.41 35.92 37.98 37.18 35.70 31.54 30.20 28.81 27.49 26.83 27.29
35.87 35.61 35.94 35.61 34.84 34.53 34.27 33.19 32.84 32.93 33.19 32.85 34.19 35.95 35.67 32.94 29.23 27.69 26.84 25.75 25.54 24.49
36.71 35.96 35.56 34.68 34.23 34.41 33.77 33.06 33.00 33.34 32.05 32.13 33.22 36.22 35.79 30.51 26.81 26.57 25.86 26.33 25.71 26.65
36.61 35.21 34.05 34.13 33.17 33.24 34.15 32.63 32.71 31.83 31.47 33.25 31.06 35.05 34.54 30.13 25.90 23.49 25.56 24.59 26.11 30.02
35.51 34.59 33.83 32.93 32.98 31.94 30.59 29.93 28.55 26.98 26.05 24.34 25.38 25.72 32.75 32.86 25.92 25.79 25.82 25.49 24.69 25.55

GFSNIL_sfc_wetblb_036.txt.gz
Wetbulb
55.72 56.83 57.15 56.03 56.31 55.77 54.64 53.92 53.09 50.49 49.50 48.24 46.11 45.10 43.56 43.31 41.91 40.88 38.29 35.97 35.92 35.12
51.74 54.05 55.56 54.00 54.57 54.74 52.94 51.67 49.58 48.63 47.62 46.45 44.92 43.78 42.21 41.43 39.32 39.33 37.36 35.92 35.67 34.75
50.67 52.84 53.18 50.79 50.20 49.38 47.79 47.59 46.93 45.46 45.56 44.73 43.86 42.36 41.54 39.66 38.17 37.54 36.77 36.10 34.93 34.27
49.01 48.85 47.49 47.48 46.29 45.01 44.94 44.61 44.74 43.91 43.12 42.71 41.39 40.95 38.75 37.51 36.94 35.62 35.74 33.97 34.66 33.39
46.01 45.01 44.38 44.67 43.58 44.65 42.87 44.03 43.89 42.94 42.23 41.57 40.64 39.66 37.46 36.45 35.93 35.31 34.37 34.67 34.96 33.83
47.01 46.06 45.74 45.22 44.89 45.11 44.37 43.64 42.67 41.95 40.21 38.94 38.69 37.26 36.79 36.50 35.99 35.83 34.97 34.43 33.61 33.05
45.90 46.46 45.63 43.66 42.66 42.26 41.33 40.46 39.51 38.80 38.57 38.68 38.18 37.57 36.89 36.34 35.59 34.83 34.20 33.66 33.22 32.67
43.90 42.73 41.60 40.88 40.61 40.26 39.71 38.90 38.25 37.40 36.77 36.50 36.41 36.24 36.11 34.95 34.28 33.70 32.68 32.14 31.94 31.94
38.51 38.22 37.38 38.11 37.41 37.00 36.89 36.80 37.07 36.30 36.37 36.80 38.06 39.66 38.42 34.31 32.07 31.86 31.59 31.72 31.34 30.00
36.97 36.43 36.78 37.07 36.29 35.10 34.98 35.28 35.52 35.74 36.08 35.93 36.90 38.67 37.61 36.69 32.89 31.49 30.51 29.11 28.36 28.44
36.54 36.05 36.25 35.98 35.14 34.95 34.76 34.27 34.10 34.27 34.34 34.20 36.56 38.47 37.51 34.92 30.70 29.49 28.43 27.98 27.42 26.87
36.70 35.72 34.99 33.67 33.17 33.93 33.86 33.33 33.38 33.62 32.51 32.24 33.40 37.16 34.90 30.62 28.06 27.45 26.77 27.19 26.05 26.15
35.58 34.46 32.39 32.75 32.95 32.92 32.57 32.50 33.24 32.14 32.09 35.05 32.70 36.31 34.35 29.52 26.74 23.35 25.48 24.51 25.87 29.66
35.36 34.38 33.72 32.73 32.31 31.85 31.29 30.70 29.73 29.61 27.68 27.22 27.06 27.92 33.96 33.93 26.79 26.29 26.05 25.86 24.65 25.68

GFSNIL_sfc_wetblb_042.txt.gz
Wetbulb
56.35 56.19 57.01 59.90 61.88 62.42 62.73 63.20 62.69 61.05 61.45 60.87 61.25 60.91 60.45 58.43 56.57 53.99 52.44 51.76 50.76 46.03
56.54 56.73 56.94 57.66 59.07 60.71 61.76 62.12 62.41 61.81 60.36 60.44 59.93 58.79 57.85 56.31 55.11 54.35 54.07 53.05 48.34 44.51
56.16 56.59 57.21 57.94 58.17 58.84 59.56 60.30 60.19 59.64 59.65 58.77 57.41 55.58 54.80 53.56 53.77 52.17 51.38 47.40 42.77 39.13
54.61 54.68 55.27 54.69 54.62 54.39 55.02 56.13 56.51 56.66 56.41 55.55 54.10 52.23 50.74 49.88 49.02 46.51 42.48 40.26 38.55 36.08
53.31 53.96 54.22 54.20 53.75 52.73 52.52 52.39 52.80 52.36 51.43 51.59 50.97 50.06 47.98 43.65 42.40 38.77 37.76 37.35 36.46 35.65
50.63 51.66 52.31 51.97 51.50 50.38 49.12 49.08 48.28 48.62 47.82 47.13 46.56 45.38 43.69 40.24 38.98 38.10 37.31 36.96 37.23 35.99
46.39 47.21 47.17 47.33 46.65 45.99 46.57 45.89 44.71 44.33 43.59 42.55 41.98 39.95 39.30 38.26 37.49 36.87 37.19 36.32 35.92 36.19
43.95 44.12 43.63 42.93 42.05 42.11 42.25 40.99 40.85 39.97 39.62 39.24 38.74 38.42 37.96 37.10 36.31 35.49 35.42 35.33 34.90 34.74
40.56 40.16 39.60 39.13 38.87 39.23 39.18 38.77 38.72 38.59 38.77 39.08 39.15 39.91 39.67 37.51 35.76 35.58 34.22 32.50 32.13 34.02
38.89 38.45 37.63 38.00 37.57 37.59 37.95 38.70 38.38 39.05 39.37 39.83 40.18 40.98 39.94 38.30 34.62 34.13 32.77 31.95 32.09 32.87
37.07 36.44 36.15 35.89 35.18 35.03 35.12 33.85 35.62 36.20 36.76 37.15 38.68 39.73 38.44 36.36 32.20 31.59 31.55 31.90 32.18 31.57
36.28 35.24 34.74 33.75 33.45 33.88 33.14 32.60 32.37 33.01 32.85 33.09 34.18 37.55 36.37 33.27 31.52 30.55 30.34 30.90 31.34 31.75
36.25 35.44 33.63 33.87 32.98 32.85 33.35 32.92 34.04 32.63 32.87 35.22 33.39 34.37 33.61 31.87 31.16 30.55 30.57 31.27 31.55 30.49
35.80 35.14 34.91 33.90 33.90 33.40 32.78 32.60 32.31 32.05 32.96 34.23 34.48 34.53 33.56 32.40 32.05 31.43 31.02 30.46 29.73 30.42

GFSNIL_sfc_wetblb_045.txt.gz
Wetbulb
56.73 56.66 56.64 56.81 57.95 60.73 61.98 62.89 64.67 63.31 62.45 62.42 62.24 61.80 61.63 60.82 59.95 58.42 57.19 55.41 53.10 51.11
56.36 56.66 56.64 57.43 57.94 58.27 59.43 60.68 61.98 62.97 61.30 60.69 60.87 60.64 60.19 59.56 58.33 56.91 55.58 53.69 52.92 50.90
55.43 55.67 56.09 56.82 56.92 57.74 58.61 59.16 59.63 60.51 60.36 58.61 59.26 59.13 58.24 57.20 55.91 54.71 53.71 52.52 50.29 43.17
53.97 54.76 55.24 55.28 55.34 55.34 55.60 55.55 55.95 56.79 56.97 56.89 56.81 55.65 53.99 53.77 52.66 52.06 47.46 45.57 42.52 39.56
52.45 53.04 53.56 53.77 53.55 53.60 53.11 52.81 52.57 52.74 52.69 53.60 52.70 51.72 50.33 48.56 47.27 43.82 41.43 39.60 38.82 36.27
48.79 49.25 49.21 49.45 49.62 49.60 49.88 49.72 48.93 48.99 48.67 48.45 47.93 46.90 45.27 44.18 41.02 40.50 38.70 37.80 37.52 36.96
45.87 46.15 46.44 45.75 44.99 44.90 45.07 44.88 44.05 43.81 43.12 42.40 41.92 41.06 40.13 40.31 39.57 39.72 38.17 37.65 37.28 36.83
43.74 43.35 42.52 41.85 41.81 41.41 40.94 40.96 41.43 40.96 40.33 40.20 39.55 39.34 38.39 38.03 37.27 36.63 35.91 36.07 36.11 35.85
41.51 40.87 40.34 40.01 39.83 39.61 39.69 39.62 39.85 39.68 39.44 39.27 39.38 40.35 39.79 38.01 36.74 35.72 34.64 33.33 33.78 35.76
39.58 38.88 38.72 38.58 37.95 37.47 37.42 37.93 37.44 38.08 39.24 39.08 40.13 41.21 39.80 37.90 34.35 33.21 32.52 32.31 32.57 33.16
37.18 36.47 36.80 36.64 36.01 35.73 35.58 34.29 33.36 33.95 35.10 35.93 38.45 39.37 38.09 36.32 32.37 31.89 32.04 32.61 32.56 31.74
36.48 35.60 35.24 34.22 33.95 34.80 34.35 33.17 32.87 33.39 32.87 32.72 34.12 37.73 37.02 33.80 32.16 31.46 31.08 31.73 31.96 31.63
36.14 35.43 34.25 34.63 33.83 34.13 34.40 33.82 33.92 32.76 33.24 34.92 33.29 34.25 33.47 32.44 31.79 30.56 30.37 31.41 31.27 31.08
36.35 35.64 35.29 34.39 34.13 32.86 32.76 32.58 32.50 33.28 33.71 34.55 34.39 33.73 34.13 33.75 32.15 31.03 30.40 29.66 28.77 29.58

GFSNIL_sfc_wetblb_048.txt.gz
Wetbulb
51.14 51.36 51.72 51.89 51.98 51.92 53.32 55.40 59.39 60.88 59.83 61.05 61.69 61.47 62.02 61.10 60.50 60.16 57.50 55.94 54.52 51.90
51.09 51.30 51.60 52.31 52.99 53.50 54.01 56.00 55.57 56.22 58.76 58.78 60.66 60.60 60.15 60.32 59.75 58.18 57.02 56.39 55.40 51.56
49.91 50.92 51.04 51.06 51.23 51.95 52.53 53.12 53.31 53.77 54.39 57.05 58.30 58.74 58.34 57.42 56.70 55.79 54.21 53.31 52.27 48.68
48.28 49.22 49.93 49.95 49.73 49.76 50.43 50.57 51.22 52.16 52.05 52.46 54.60 55.50 54.45 53.29 52.74 52.18 48.54 47.76 45.80 42.49
45.81 46.13 45.61 45.72 46.01 46.56 46.58 47.19 47.36 48.36 49.60 49.98 49.63 50.71 50.01 47.69 47.81 45.88 43.79 41.59 40.78 38.43
43.04 42.82 42.65 42.34 42.75 43.25 42.68 42.62 41.97 42.59 43.18 43.95 43.76 43.77 43.45 42.11 40.73 40.31 39.97 39.44 38.80 38.24
40.55 40.23 40.11 40.50 40.35 40.14 40.37 40.88 41.66 41.14 40.64 40.62 39.93 39.17 38.77 39.21 38.16 38.21 38.34 38.71 38.36 38.29
39.80 39.52 39.43 39.55 38.80 38.69 38.65 39.48 40.24 39.82 39.62 39.50 39.50 39.40 37.71 37.74 36.43 36.19 35.83 36.06 36.35 36.54
38.98 39.25 38.85 38.65 38.46 38.73 38.93 39.14 39.94 39.69 39.68 39.41 40.18 40.91 40.03 37.01 35.06 34.87 34.31 33.23 33.22 35.13
38.28 37.65 37.72 37.42 36.67 35.86 35.57 36.21 36.38 36.95 37.08 37.24 39.02 40.39 39.43 37.37 33.59 32.67 32.22 32.10 32.12 33.20
36.59 36.03 36.14 35.76 35.32 35.08 35.09 34.07 33.31 33.88 34.70 36.12 37.94 39.31 38.48 36.43 32.38 31.98 31.91 31.85 31.90 31.80
35.96 35.27 34.97 34.47 33.93 34.36 33.63 32.70 32.55 32.36 32.85 33.20 35.10 37.90 36.87 33.79 31.54 30.76 31.01 31.80 31.30 31.01
35.72 34.07 33.92 34.08 33.72 33.83 33.09 32.35 32.17 32.13 30.60 33.56 28.05 35.03 34.46 32.12 30.31 27.60 28.47 28.46 28.70 31.46
35.98 34.95 33.99 33.08 33.20 32.70 32.30 29.00 27.06 29.35 27.04 29.04 30.25 31.12 35.21 34.68 28.24 26.07 25.65 25.14 23.85 26.30